Flag for U.S.A. Weather past 2 weeks in Cumberland, Maryland, U.S.A.

Now
75 °F

Overcast.


Feels Like: 77 °F
Forecast: 64 / 79 °F
Wind: 6 mph from Northeast

Location: Eastern West Virginia Regional Airport

Current Time: Jul 24, 2014 at 12:25:40 PM

Latest Report: Jul 24, 2014 at 11:53 AM


Visibility: 10 mi

Pressure: 29.95 "Hg

Humidity: 58%

Dew point: 59 °F

Location of CumberlandLocation

Historic Weather in Cumberland — Graph

°F

Cumberland temperature yesterday

Maximum temperature yesterday: 93 °F (at 2:53 PM)
Minimum temperature yesterday: 70 °F (at 4:53 AM)
Average temperature yesterday: 80 °F

Past Weeks' High & Low Weather Summary

 TemperatureHumidityPressure
High93 °F (Jul 23, 2:53 PM)93% (Jul 15, 6:53 AM)30.26 "Hg (Jul 15, 6:53 AM)
Low56 °F (Jul 18, 5:53 AM)32% (Jul 9, 4:53 PM)29.73 "Hg (Jul 15, 4:53 PM)
Average74 °F68%30.04 "Hg
* Reported Jul 9 10:53 AM — Jul 24 10:53 AM, Cumberland, Weather by CustomWeather, © 2014

Note: Actual official high and low records may vary slightly from our data, if they occured in-between our weather recording intervals... More about our weather records

Advertising

Cumberland weather history for previous 24 hours

 ConditionsComfort  
Time TempWeatherWind HumidityBarometerVisibility
10:53 AM
Jul 24
74 °FMore clouds than sun.7 mph62%29.94 "Hg10 mi
9:53 AM72 °FOvercast.5 mph71%29.94 "Hg10 mi
8:53 AM70 °FOvercast.6 mph76%29.94 "Hg10 mi
7:53 AM71 °FMostly cloudy.7 mph73%29.92 "Hg10 mi
6:53 AM70 °FMostly cloudy.6 mph76%29.90 "Hg10 mi
5:53 AM71 °FOvercast.10 mph73%29.89 "Hg10 mi
4:53 AM71 °FOvercast.8 mph78%29.89 "Hg10 mi
3:53 AM72 °FLight rain. Mostly cloudy.6 mph81%29.89 "Hg7 mi
2:53 AM74 °FLight rain. Mostly cloudy.10 mph74%29.90 "Hg9 mi
1:53 AM76 °FPassing clouds.9 mph67%29.89 "Hg10 mi
12:53 AM78 °FMostly cloudy.10 mph64%29.89 "Hg10 mi
11:53 PM
Jul 23
79 °FPassing clouds.7 mph67%29.88 "Hg10 mi
10:53 PM76 °FOvercast.No wind85%29.87 "Hg7 mi
9:53 PM75 °FFog.6 mph88%29.88 "Hg6 mi
8:53 PM79 °FSunny.7 mph77%29.86 "Hg9 mi
7:53 PM78 °FSunny.6 mph79%29.87 "Hg8 mi
6:53 PM77 °FSunny.3 mph77%29.86 "Hg10 mi
5:53 PM80 °FScattered clouds.5 mph71%29.83 "Hg10 mi
4:53 PM83 °FLight rain. Overcast.10 mph65%29.82 "Hg6 mi
3:53 PM93 °FScattered clouds.9 mph44%29.84 "Hg10 mi
2:53 PM93 °FScattered clouds.7 mph46%29.85 "Hg10 mi
1:53 PM90 °FScattered clouds.10 mph48%29.88 "Hg10 mi
12:53 PM91 °FSunny.7 mph49%29.90 "Hg10 mi
Weather by CustomWeather, © 2014

See weather overviewHow to use our weather pages